Regional Weather Roundup
Issued by NWS

Home | Current Version | Previous Version | Graphics & Text | Print | Product List | Glossary Off
Versions: 1 2 3 4 5 6 7 8 9 10 11 12 13 14 15 16 17 18 19 20 21 22 23 24 25 26 27 28 29 30 31 32 33 34 35 36 37 38 39 40 41 42 43 44 45 46 47 48 49 50

000
ASUS43 KMKX 280511
RWRWI

WISCONSIN REGIONAL WEATHER ROUNDUP
NATIONAL WEATHER SERVICE MILWAUKEE/SULLIVAN WI
1200 AM CDT THU JUL 28 2016

NOTE: "FAIR" INDICATES FEW OR NO CLOUDS BELOW 12,000 FEET WITH NO
SIGNIFICANT WEATHER AND/OR OBSTRUCTIONS TO VISIBILITY.

WIZ001-002-006>008-014>016-023>028-280600-
NORTHWEST WISCONSIN

CITY           SKY/WX    TMP DP  RH WIND       PRES   REMARKS
SUPERIOR ARPT  MOCLDY    59  58  95 NE6       30.05R
ASHLAND        CLOUDY    61  60  97 NE5       30.04R
HAYWARD        CLOUDY    63  61  93 NE7       30.03R
SIREN          CLOUDY    63  61  94 NE7       30.02
CUMBERLAND     CLOUDY    63  63 100 N6        30.01R
RICE LAKE      CLOUDY    64  62  94 CALM      30.01S
CHETEK         CLOUDY    65  64  97 CALM      30.00R
LADYSMITH      MOCLDY    65  63  95 N3        30.01R
EAU CLAIRE     LGT RAIN  66  65  96 NE3       29.96S
MENOMONIE      CLOUDY    66  66  99 N7        29.97F
NEW RICHMOND   CLOUDY    66  65  97 N5        30.00R
OSCEOLA        CLOUDY    65  65 100 N7        30.02S
$$

WIZ003>005-009-010-017-018-280600-
NORTH CENTRAL WISCONSIN

CITY           SKY/WX    TMP DP  RH WIND       PRES   REMARKS
MANITOWISH WTR CLOUDY    63  63 100 NE3       30.03S
ARBOR VITAE    CLOUDY    64  62  92 CALM      30.02S
WOODRUFF       CLOUDY    64  62  92 CALM      30.02S
RHINELANDER    LGT RAIN  65  63  93 NE6       30.01F
EAGLE RIVER    LGT RAIN  64  64 100 CALM      30.02S
LAND O LAKES   LGT RAIN  62  62  97 NE6       30.04S
PHILLIPS       CLOUDY    64  63  99 NE5       30.01R
TOMAHAWK       DRIZZLE   63  62  96 CALM      30.02R
MEDFORD        RAIN      62  62 100 NE5       29.99S
MERRILL        LGT RAIN  63  63 100 NE3       30.00S
$$

WIZ029-030-035-036-043>047-280600-
CENTRAL WISCONSIN

CITY           SKY/WX    TMP DP  RH WIND       PRES   REMARKS
WAUSAU         CLOUDY    64  62  93 SE3       29.98S
MOSINEE        CLOUDY    63  63 100 E6        30.00R
MARSHFIELD     CLOUDY    66  63  90 E6        29.97S
STEVENS POINT  CLOUDY    64  63  97 E7        29.98F
WAUPACA        CLOUDY    67  67  99 N5        29.99R
WAUTOMA        RAIN      68  67  96 E9        29.97S
WISC RAPIDS    MOCLDY    66  63  90 E7        29.98S
CAMP DOUGLAS   CLOUDY    68  66  95 NE1       29.96R
$$

WIZ011>013-019>022-031-037>040-048>050-280600-
NORTHEAST WISCONSIN

CITY           SKY/WX    TMP DP  RH WIND       PRES   REMARKS
ANTIGO         CLOUDY    64  64  99 CALM      30.01S
SHAWANO        RAIN      68  65  90 NE10      29.99F
OCONTO         CLOUDY   N/A N/A N/A NE6       30.00R
STURGEON BAY   CLOUDY    70  64  81 N10       30.00S
GREEN BAY      RAIN      68  68 100 N10       29.99R
MANITOWOC      CLOUDY    68  65  90 NW3       29.97S
APPLETON       CLOUDY    66  66 100 N14       29.97S
CLINTONVILLE   RAIN      64  63  94 E5        29.99F
OSHKOSH        CLOUDY    73  66  78 E3        29.97R
$$

WIZ032>034-041-042-053>061-280600-
SOUTHWEST WISCONSIN

CITY           SKY/WX    TMP DP  RH WIND       PRES   REMARKS
LA CROSSE      CLOUDY    73  68  84 E9        29.93R
SPARTA         CLOUDY    68  66  93 CALM      29.95F
VIROQUA        CLOUDY    69  67  93 CALM      29.96S
BOSCOBEL       CLEAR     69  67  93 CALM      29.94R FOG
PRAIRIE DU CHI CLEAR     69  66  90 CALM      29.93S
PLATTEVILLE    CLEAR     72  69  93 CALM      29.96S
$$

WIZ056-057-062-063-064-067-068-280600-
SOUTH CENTRAL WISCONSIN

CITY           SKY/WX    TMP DP  RH WIND       PRES   REMARKS
REEDSBURG      CLOUDY    72  71  98 CALM      29.95R
BARABOO/DELLS  CLOUDY    71  67  87 CALM      29.95R
LONE ROCK      CLEAR     67  65  93 CALM      29.95R
MINERAL POINT  PTCLDY    72  68  88 CALM      29.96S
MADISON        CLEAR     75  68  78 S7        29.94R
MIDDLETON      MOCLDY    71  68  90 CALM      29.96R
WATERTOWN      PTCLDY    69  69 100 CALM      29.95S
MONROE         PTCLDY    72  64  78 CALM      29.95S
JANESVILLE     CLOUDY    73  68  83 CALM      29.94R
$$

WIZ051-052-058>065-066-070>072-280600-
SOUTHEAST WISCONSIN

CITY           SKY/WX    TMP DP  RH WIND       PRES   REMARKS
MILWAUKEE      MOCLDY    73  68  84 SE3       29.95S
WAUKESHA       CLEAR     70  66  88 SE5       29.97R
MILWAUKEE/TIMM CLEAR     72  63  73 CALM      29.96S
RACINE         PTCLDY    71  68  90 CALM      29.96F
BURLINGTON     PTCLDY    69  68  95 CALM      29.94F
KENOSHA        MOCLDY    75  72  90 SE5       29.95F
FOND DU LAC    PTCLDY    68  64  87 NE5       29.97R
SHEBOYGAN      FOG       66  64  93 W3        29.96S VSB 1/2
WEST BEND      CLEAR     64  63  94 CALM      29.97R
JUNEAU         CLOUDY    68  66  92 E3        29.97R
$$

LSZ147-162-280600-
LAKE SUPERIOR

STATION/POSITION TIME  TEMP    WIND        PRES    WAVE
                       AIR SEA DIR/SP/G            HT/PER
                 (UTC) (F)     (DEG/KT/KT) (MB)    (FT/S)
W MID LAKE BUOY  0450   60 60  350/  4/  6 1016.9R   1
DEVILS ISLAND    0500   62      40/  8/  9 1017.3S
SAXON HARBOR     0440   65      60/  2/  4 1016.3S
$$

LMZ867-665-643>646-280600-
LAKE MICHIGAN

STATION/POSITION TIME  TEMP    WIND        PRES    WAVE
                       AIR SEA DIR/SP/G            HT/PER
                 (UTC) (F)     (DEG/KT/KT) (MB)    (FT/S)
CHAMBERS ISLAND  0400   69     360/ 12/ 15 1015.9
S GREEN BAY BUOY 0300   73 75   40/ 16/ 17   N/A
N MID LAKE BUOY  0450   68 70   10/ 14/ 17 1014.7R   2/ 4
NORTHPORT PIER   0400   70      10/  7/  9 1015.6R
SISTER BAY       0436   68      20/  7/  8   N/A
ALGOMA LAKESHORE 0443          350/  6/ 10   N/A
KEWAUNEE LAKESHO 0400   69     310/  2/  3 1014.5R
SHEBOYGAN LAKESH 0500   68      CALM  /  1 1014.7R
PORT WASHINGTON  0400   63      40/  5/  7 1015.2S
ATWATER BUOY     0500   61 61  300/  4/  4 1015.7F
MILWAUKEE LAKESH 0410   71      CALM  /  1   N/A
S MID LAKE BUOY  0450   76 75  150/  6/  6 1013.1S   1
KENOSHA   LAKESH 0500   73     130/  2/  3 1013.9S
$$

TC  - TEMPERATURE IN CELSIUS
VSB - VISIBILITY IN STATUTE MILES
WCI - WIND CHILL INDEX
HX  - HEAT INDEX




USA.gov is the U.S. government's official web portal to all federal, state and local government web resources and services.